Location: Newark
(27.9675°N, 86.8869°E)
Time: 04:50:26
(UTC+00:00)

deb Explorer IX - Pass Details

Date: 24 October 2019
Orbit: 546 x 1105 km, 38.8° (Epoch: 14 November)

Event Time Altitude Azimuth Distance (km) Brightness Sun altitude
Rises 10:11:34 0° 301° (WNW) 3,343 ? 16.7°
Reaches altitude 10° 10:13:59 10° 306° (NW) 2,494 ? 16.2°
Maximum altitude 10:19:55 55° 24° (NNE) 1,137 ? 15.0°
Drops below altitude 10° 10:26:41 10° 101° (E) 2,844 ? 13.6°
Sets 10:29:36 0° 105° (ESE) 3,848 ? 13.0°
